SCP
0 0 0 0 0 0 0 0 0 0 0 0 0 0 0 0 0 0 0 -0 -0 0 0 0 0 0 0 0 0 0 0 0 0 0 0 0 0 0 0 0 0 0 0
-0 -0 0 0 0 0 0 -0 -0 -0 -0 -0 0 -0 0 0 -0 0 0 0 0 0 0 0 0 0 0 0 0 0 0 0 0 0 0 0 0 0 0 0 0 0 0
-0 -0 -0 0 0 0 -0 -0 -0 -0 -0 -0 -0 -0 -0 0 0 0 0 0 0 0 0 0 0 0 0 0 0 0 0 0 -0 -0 -0 -0 -0 -0 0 0 -0 -0 -0
0 -0 -0 -0 0 -0 -0 -0 -0 -0 -0 0 0 0 0 0 0 0 0 0 0 0 0 0 0 0 0 0 -0 -0 -0 -0 -0 -0 -0 -0 -0 0 -0 -0 -0 -0 -0
0 -0 -0 -0 -0 -0 -0 -0 -0 -0 -0 0 0 -0 0 0 0 0 0 0 0 0 0 0 0 0 0 0 -0 -0 -0 -0 -0 -0 -0 -0 -0 -0 -0 -0 -0 -0 -0
0 -0 -0 -0 -0 -0 -0 -0 -0 -0 -0 -0 -0 -0 -0 0 -0 -0 0 0 0 0 0 -0 -0 0 0 0 0 0 0 0 0 0 0 0 0 0 0 0 0 0 -0
0 -0 -0 -0 -0 -0 -0 -0 -0 -0 -0 -0 -0 0 0 0 -0 0 0 0 0 0 0 0 0 0 0 0 0 0 0 0 0 0 0 0 0 0 0 0 0 0 0
-0 -0 -0 -0 -0 -0 -0 -0 -0 0 -0 0 0 0 0 0 0 0 0 0 0 0 0 0 0 0 0 0 0 0 0 0 0 0 0 0 0 0 0 0 0 0 0
0 0 0 0 -0 -0 -0 -0 0 -0 0 0 0 0 0 0 0 0 0 0 0 0 0 0 0 0 0 0 0 0 0 0 0 0 0 0 0 0 0 0 0 0 0
0 0 0 0 0 0 0 -0 0 0 0 0 0 0 0 0 0 0 0 0 0 0 0 0 0 0 0 0 0 0 0 0 0 0 0 0 0 0 0 0 0 0 0
0 0 0 0 0 0 0 0 0 0 0 0 0 0 0 0 0 0 0 0 0 0 0 0 0 0 0 0 0 0 0 0 0 0 0 0 0 0 0 0 0 0 0
0 0 0 0 0 0 0 0 0 0 0 0 0 0 0 0 0 0 0 0 0 0 0 0 0 0 0 0 0 0 0 0 0 0 0 0 0 0 0 0 0 0 0
0 0 0 0 0 0 0 0 0 0 0 0 0 0 0 0 0 0 0 0 0 0 0 0 0 0 0 0 0 0 0 0 0 0 0 0 0 0 0 0 0 0 0
0 0 0 0 0 0 0 0 0 0 0 0 0 0 0 0 0 0 0 0 0 0 0 0 0 0 0 0 0 0 0 0 0 0 0 0 0 0 0 0 0 0 0
0 0 0 0 0 0 0 0 0 0 0 0 0 0 0 0 0 0 0 0 0 0 0 0 0 0 0 0 0 0 0 0 0 0 0 0 0 0 0 0 0 0 0
0 0 0 0 0 0 0 0 0 0 0 0 0 0 0 0 0 0 0 0 0 0 0 0 0 0 0 0 0 0 0 0 0 0 0 0 0 0 0 0 0 0 0
0 0 0 0 0 0 0 0 0 0 0 0 0 0 0 0 0 0 0 0 0 0 0 0 0 0 0 0 0 0 0 0 0 0 0 0 0 0 0 0 0 0 0
0 0 0 0 0 0 0 0 0 0 0 0 0 0 0 0 0 0 0 0 0 0 0 0 0 0 0 0 0 0 0 0 0 0 0 0 0 0 0 0 0 0 0
0 0 0 0 0 0 0 0 0 0 0 0 0 0 0 0 0 0 0 0 0 0 0 0 0 0 0 0 0 0 0 0 0 0 0 0 0 0 0 0 0 0 0
0 0 0 0 0 0 0 0 0 0 0 0 0 0 0 0 0 0 0 0 0 0 0 0 0 0 0 0 0 0 0 0 0 0 0 0 0 0 0 0 0 0 0
0 0 0 0 0 0 0 0 0 0 0 0 0 0 0 0 0 0 0 0 0 0 0 0 0 0 0 0 0 0 0 0 0 0 0 0 0 0 0 0 0 0 0
0 0 0 0 0 0 0 0 0 0 0 0 0 0 0 0 0 0 0 0 0 0 0 0 0 0 0 0 0 0 0 0 0 0 0 0 0 0 0 0 0 0 0
0 0 0 0 0 0 0 0 0 0 0 0 0 0 0 0 0 0 0 0 0 0 0 0 0 0 0 0 0 0 0 0 0 0 0 0 0 0 0 0 0 0 0
0 0 0 0 0 0 0 0 0 0 0 0 0 0 0 0 0 0 0 0 0 0 0 0 0 0 0 0 0 0 0 0 0 0 0 0 0 0 0 0 0 0 0
0 0 0 0 0 0 0 0 0 0 0 0 0 0 0 0 0 0 0 0 0 0 0 0 0 0 0 0 -0 -0 -0 -0 0 0 0 0 0 0 0 0 0 0 0
0 0 0 0 0 0 0 0 0 0 0 0 0 0 0 0 0 0 0 0 0 0 0 0 0 0 0 0 -0 -0 -0 -0 -0 -0 0 0 0 0 0 0 0 0 0
Wind_Speed_500mb
94 92 90 91 90 84 83 81 80 79 81 80 76 71 68 65 62 60 56 53 51 52 49 44 43 37 35 33 32 31 32 33 34 41 46 52 56 61 63 65 67 70 74
95 95 94 96 98 103 100 93 85 84 80 78 78 74 71 68 67 65 63 59 55 53 49 42 43 39 38 39 39 40 40 40 43 54 57 62 65 66 74 74 80 81 87
101 102 103 101 99 103 98 94 89 89 88 86 85 82 78 73 67 64 59 56 53 50 47 47 47 46 46 47 46 47 48 48 51 58 68 70 72 76 85 89 92 102 100
102 102 104 102 99 96 92 93 95 90 85 80 79 79 74 70 64 58 55 53 51 50 49 49 49 50 51 53 56 59 62 63 64 67 74 78 78 81 93 106 118 112 113
105 106 106 100 97 94 91 89 88 86 81 77 74 73 68 65 60 54 51 51 51 51 49 49 51 53 54 58 60 61 62 66 70 75 77 78 78 93 98 103 104 106 106
100 102 97 92 91 89 87 85 83 81 75 71 70 64 63 63 54 51 49 49 48 48 52 55 57 57 59 61 62 63 60 62 67 69 73 79 88 90 91 91 88 98 97
93 91 88 84 84 80 78 75 76 69 64 66 62 58 61 56 48 47 47 49 51 54 55 57 58 61 63 65 64 63 64 62 57 56 67 73 77 73 71 79 78 80 95
87 85 80 77 77 73 69 69 64 59 60 57 56 56 53 51 47 46 48 48 51 55 58 60 61 61 62 64 66 66 66 64 58 59 60 62 58 55 56 60 69 84 96
79 75 72 67 65 61 60 57 55 54 53 50 51 46 45 48 45 44 44 49 50 54 57 58 60 62 67 65 72 72 67 65 63 60 56 55 55 55 55 62 76 89 107
69 65 60 58 57 56 54 51 47 44 45 43 44 45 43 43 40 47 50 49 56 58 59 57 63 70 67 65 71 69 68 65 68 67 61 57 59 60 60 66 78 90 99
58 55 52 50 48 47 46 43 40 36 35 37 37 33 39 43 46 46 51 53 62 57 64 68 64 66 67 63 61 58 52 59 66 64 65 64 63 67 73 77 81 88 104
45 43 42 40 40 39 34 33 31 33 36 29 28 34 37 40 41 45 55 57 56 67 64 64 67 66 63 57 54 55 57 60 61 64 67 69 76 81 87 93 97 98 107
37 37 35 33 32 29 25 29 30 28 24 29 29 31 33 35 40 44 47 54 59 59 64 62 59 56 56 55 54 55 54 54 59 65 71 76 81 88 98 106 112 117 128
29 30 29 25 24 23 25 25 23 23 25 27 27 28 30 34 39 45 51 54 54 55 53 52 53 52 51 52 51 48 50 54 61 67 74 80 88 99 108 111 124 130 138
22 24 24 21 20 20 17 16 17 20 23 27 31 32 33 35 40 44 48 52 56 57 55 55 57 56 54 51 48 49 51 55 59 63 73 85 98 108 114 118 125 129 115
17 18 16 15 16 17 18 19 21 25 29 31 30 32 33 36 39 41 46 49 52 55 56 58 54 51 51 53 54 54 53 59 63 71 81 93 106 116 123 128 125 110 108
11 11 12 12 11 10 10 10 11 13 16 19 23 25 27 30 33 38 42 45 49 51 50 48 47 47 51 55 59 62 68 69 75 82 92 101 109 119 122 127 126 111 117
11 8 6 3 2 3 5 8 11 12 14 17 21 25 28 31 36 39 43 46 48 47 50 48 46 46 52 59 65 71 77 81 85 91 101 109 114 119 126 130 126 118 120
12 10 7 4 2 5 9 12 15 18 21 24 28 34 38 37 39 42 45 50 52 51 50 47 43 47 53 61 68 75 81 85 92 103 108 115 119 123 133 131 125 128 128
19 15 11 7 6 9 13 17 22 26 29 31 34 40 45 45 44 44 47 51 53 52 52 50 45 48 54 62 71 78 84 91 100 104 113 124 131 133 134 131 133 132 134
24 21 18 15 13 14 16 20 24 28 32 35 37 41 47 50 48 48 49 51 53 53 54 52 47 49 54 63 71 78 85 93 102 110 120 128 137 142 130 138 134 133 133
32 30 26 23 20 19 21 24 28 31 34 39 40 42 47 50 50 50 50 53 52 52 54 54 48 49 54 64 71 78 87 96 106 113 125 128 138 123 127 129 133 134 135
42 38 35 31 27 25 25 27 30 34 38 42 44 44 47 52 53 52 52 53 52 51 53 50 47 50 55 63 68 76 89 99 105 114 119 134 127 113 128 135 133 134 138
49 45 41 37 34 31 30 31 34 35 38 41 45 46 50 54 55 53 52 52 51 51 51 47 45 51 61 66 71 77 87 93 102 112 111 128 105 146 134 130 134 139 147
55 51 47 42 38 35 34 35 36 38 40 43 46 47 50 55 57 55 53 52 51 53 50 45 46 52 61 67 74 78 84 88 103 107 116 109 137 133 131 133 140 147 149
59 55 50 47 43 39 38 38 39 41 42 44 47 47 51 56 58 57 54 52 51 52 50 46 46 54 62 69 75 80 87 94 107 106 110 135 132 134 135 141 149 153 148
Wind_Direction_500mb
114 115 116 115 115 119 116 118 119 116 110 106 108 108 102 98 97 94 89 82 78 79 79 73 70 61 52 43 32 22 10 359 343 330 328 326 322 320 317 313 312 308 307
107 110 105 105 106 106 107 108 109 103 100 101 101 98 92 87 87 87 88 85 80 75 70 64 61 52 42 32 22 12 4 355 339 334 331 328 326 324 318 316 316 315 316
105 105 105 103 101 101 101 100 100 99 97 96 96 94 91 88 85 81 79 76 71 65 59 51 43 33 26 17 9 2 356 349 343 336 333 330 328 326 318 320 321 319 320
106 104 103 102 101 101 101 101 101 102 101 99 96 92 86 81 77 74 70 67 63 57 49 42 33 24 17 8 3 359 352 347 342 336 333 330 330 325 324 324 321 321 320
103 104 102 103 102 103 103 101 98 97 95 94 92 90 87 82 74 69 64 62 56 49 41 33 27 19 11 6 1 356 350 344 341 338 331 330 329 326 328 325 323 323 323
104 104 106 106 106 104 102 99 97 97 97 92 86 85 81 76 70 63 58 53 48 43 34 25 17 8 1 358 355 352 346 342 337 333 327 325 324 324 324 327 324 325 324
106 106 105 105 103 101 100 100 97 95 94 89 86 82 78 72 65 58 51 46 40 34 26 15 8 2 355 351 346 342 337 336 332 327 324 325 326 331 329 322 321 319 317
105 104 104 103 101 101 99 93 94 94 88 85 82 77 74 70 62 53 45 40 34 25 17 9 1 354 348 345 341 342 338 336 336 334 332 329 329 325 318 319 317 318 320
102 101 100 100 101 100 98 98 92 86 85 81 76 75 70 66 57 49 41 34 26 20 11 2 355 352 351 350 342 343 341 340 335 337 335 331 330 330 331 326 329 327 324
104 104 106 105 103 99 95 91 89 88 85 81 73 64 60 55 48 38 31 25 19 12 6 358 356 354 348 345 341 340 336 334 335 335 333 333 334 334 334 332 332 327 324
105 106 105 101 97 92 90 86 83 82 80 74 68 64 55 46 37 29 22 16 14 3 360 356 351 348 345 340 336 336 335 328 337 333 334 337 336 335 336 336 334 326 320
109 107 103 103 102 96 92 90 84 73 64 66 60 50 45 38 27 21 17 12 3 3 354 349 349 344 340 336 332 335 336 335 332 334 335 337 337 339 337 334 330 328 325
111 108 105 97 95 97 92 78 67 63 55 48 43 38 32 24 17 15 10 4 0 353 350 347 341 337 335 335 339 338 334 332 334 334 334 336 336 334 332 333 331 331 329
115 108 102 100 95 85 73 67 58 50 41 34 29 22 17 10 5 1 358 354 349 346 346 341 338 338 339 337 336 335 335 336 334 332 330 331 332 333 332 333 331 333 328
110 105 104 101 93 84 78 69 50 37 29 23 16 9 2 357 355 351 347 346 346 343 340 338 340 342 343 343 340 337 337 334 329 326 326 328 331 330 330 332 331 327 314
109 99 89 75 61 48 35 25 18 16 13 6 358 353 353 348 342 340 341 341 340 337 338 338 342 343 344 344 341 338 338 334 330 327 328 329 329 330 330 330 328 316 307
117 108 86 68 51 34 18 5 352 347 344 344 347 344 336 329 328 329 333 338 338 336 336 338 339 342 343 342 341 339 336 336 334 333 332 331 330 330 330 328 324 314 310
141 119 112 102 73 13 354 350 347 338 334 343 346 342 335 332 332 333 336 339 340 339 336 336 335 337 339 339 341 339 337 337 338 336 333 332 332 331 329 325 320 314 311
181 189 192 200 294 337 346 350 348 347 346 343 343 345 345 342 336 339 337 335 337 339 337 335 332 333 335 336 337 337 337 338 338 336 336 335 335 332 329 324 317 315 311
207 215 225 246 287 322 339 343 344 348 348 343 341 343 345 343 340 338 334 335 337 338 338 334 332 332 333 335 336 337 337 338 337 336 335 335 335 332 326 322 319 314 310
224 231 241 256 280 301 316 326 335 340 342 341 338 340 343 343 337 333 334 336 337 337 336 334 331 330 333 335 335 334 335 336 336 336 335 334 334 330 329 326 318 313 309
235 242 250 258 272 287 302 316 324 330 334 336 337 339 340 339 336 334 335 336 336 336 333 330 329 330 334 334 333 333 334 335 335 335 334 334 334 331 328 322 316 312 312
238 244 251 258 267 278 291 302 312 322 328 332 334 333 336 338 337 336 334 334 335 334 332 328 326 329 333 332 332 333 333 333 333 334 335 333 332 328 322 317 317 315 314
242 244 249 256 265 276 288 297 306 314 320 326 329 330 334 336 337 335 332 333 334 334 331 328 327 329 332 333 333 332 333 335 335 334 336 332 321 324 323 321 319 317 316
243 247 251 257 263 272 282 290 299 307 315 322 326 328 331 334 336 334 332 333 334 334 335 332 331 331 333 334 335 334 335 336 334 340 336 326 327 328 327 323 321 320 319
244 246 250 254 261 268 279 286 293 299 308 315 321 325 330 334 334 334 333 334 334 335 336 335 332 333 335 337 338 338 337 336 340 339 332 332 335 333 330 327 327 324 322
Wind_Speed_850mb
94 92 90 91 90 84 83 81 80 79 81 80 76 71 68 65 62 60 56 53 51 52 49 44 43 37 35 33 32 31 32 33 34 41 46 52 56 61 63 65 67 70 74
95 95 94 96 98 103 100 93 85 84 80 78 78 74 71 68 67 65 63 59 55 53 49 42 43 39 38 39 39 40 40 40 43 54 57 62 65 66 74 74 80 81 87
101 102 103 101 99 103 98 94 89 89 88 86 85 82 78 73 67 64 59 56 53 50 47 47 47 46 46 47 46 47 48 48 51 58 68 70 72 76 85 89 92 102 100
102 102 104 102 99 96 92 93 95 90 85 80 79 79 74 70 64 58 55 53 51 50 49 49 49 50 51 53 56 59 62 63 64 67 74 78 78 81 93 106 118 112 113
105 106 106 100 97 94 91 89 88 86 81 77 74 73 68 65 60 54 51 51 51 51 49 49 51 53 54 58 60 61 62 66 70 75 77 78 78 93 98 103 104 106 106
100 102 97 92 91 89 87 85 83 81 75 71 70 64 63 63 54 51 49 49 48 48 52 55 57 57 59 61 62 63 60 62 67 69 73 79 88 90 91 91 88 98 97
93 91 88 84 84 80 78 75 76 69 64 66 62 58 61 56 48 47 47 49 51 54 55 57 58 61 63 65 64 63 64 62 57 56 67 73 77 73 71 79 78 80 95
87 85 80 77 77 73 69 69 64 59 60 57 56 56 53 51 47 46 48 48 51 55 58 60 61 61 62 64 66 66 66 64 58 59 60 62 58 55 56 60 69 84 96
79 75 72 67 65 61 60 57 55 54 53 50 51 46 45 48 45 44 44 49 50 54 57 58 60 62 67 65 72 72 67 65 63 60 56 55 55 55 55 62 76 89 107
69 65 60 58 57 56 54 51 47 44 45 43 44 45 43 43 40 47 50 49 56 58 59 57 63 70 67 65 71 69 68 65 68 67 61 57 59 60 60 66 78 90 99
58 55 52 50 48 47 46 43 40 36 35 37 37 33 39 43 46 46 51 53 62 57 64 68 64 66 67 63 61 58 52 59 66 64 65 64 63 67 73 77 81 88 104
45 43 42 40 40 39 34 33 31 33 36 29 28 34 37 40 41 45 55 57 56 67 64 64 67 66 63 57 54 55 57 60 61 64 67 69 76 81 87 93 97 98 107
37 37 35 33 32 29 25 29 30 28 24 29 29 31 33 35 40 44 47 54 59 59 64 62 59 56 56 55 54 55 54 54 59 65 71 76 81 88 98 106 112 117 128
29 30 29 25 24 23 25 25 23 23 25 27 27 28 30 34 39 45 51 54 54 55 53 52 53 52 51 52 51 48 50 54 61 67 74 80 88 99 108 111 124 130 138
22 24 24 21 20 20 17 16 17 20 23 27 31 32 33 35 40 44 48 52 56 57 55 55 57 56 54 51 48 49 51 55 59 63 73 85 98 108 114 118 125 129 115
17 18 16 15 16 17 18 19 21 25 29 31 30 32 33 36 39 41 46 49 52 55 56 58 54 51 51 53 54 54 53 59 63 71 81 93 106 116 123 128 125 110 108
11 11 12 12 11 10 10 10 11 13 16 19 23 25 27 30 33 38 42 45 49 51 50 48 47 47 51 55 59 62 68 69 75 82 92 101 109 119 122 127 126 111 117
11 8 6 3 2 3 5 8 11 12 14 17 21 25 28 31 36 39 43 46 48 47 50 48 46 46 52 59 65 71 77 81 85 91 101 109 114 119 126 130 126 118 120
12 10 7 4 2 5 9 12 15 18 21 24 28 34 38 37 39 42 45 50 52 51 50 47 43 47 53 61 68 75 81 85 92 103 108 115 119 123 133 131 125 128 128
19 15 11 7 6 9 13 17 22 26 29 31 34 40 45 45 44 44 47 51 53 52 52 50 45 48 54 62 71 78 84 91 100 104 113 124 131 133 134 131 133 132 134
24 21 18 15 13 14 16 20 24 28 32 35 37 41 47 50 48 48 49 51 53 53 54 52 47 49 54 63 71 78 85 93 102 110 120 128 137 142 130 138 134 133 133
32 30 26 23 20 19 21 24 28 31 34 39 40 42 47 50 50 50 50 53 52 52 54 54 48 49 54 64 71 78 87 96 106 113 125 128 138 123 127 129 133 134 135
42 38 35 31 27 25 25 27 30 34 38 42 44 44 47 52 53 52 52 53 52 51 53 50 47 50 55 63 68 76 89 99 105 114 119 134 127 113 128 135 133 134 138
49 45 41 37 34 31 30 31 34 35 38 41 45 46 50 54 55 53 52 52 51 51 51 47 45 51 61 66 71 77 87 93 102 112 111 128 105 146 134 130 134 139 147
55 51 47 42 38 35 34 35 36 38 40 43 46 47 50 55 57 55 53 52 51 53 50 45 46 52 61 67 74 78 84 88 103 107 116 109 137 133 131 133 140 147 149
59 55 50 47 43 39 38 38 39 41 42 44 47 47 51 56 58 57 54 52 51 52 50 46 46 54 62 69 75 80 87 94 107 106 110 135 132 134 135 141 149 153 148
Wind_Direction_850mb
114 115 116 115 115 119 116 118 119 116 110 106 108 108 102 98 97 94 89 82 78 79 79 73 70 61 52 43 32 22 10 359 343 330 328 326 322 320 317 313 312 308 307
107 110 105 105 106 106 107 108 109 103 100 101 101 98 92 87 87 87 88 85 80 75 70 64 61 52 42 32 22 12 4 355 339 334 331 328 326 324 318 316 316 315 316
105 105 105 103 101 101 101 100 100 99 97 96 96 94 91 88 85 81 79 76 71 65 59 51 43 33 26 17 9 2 356 349 343 336 333 330 328 326 318 320 321 319 320
106 104 103 102 101 101 101 101 101 102 101 99 96 92 86 81 77 74 70 67 63 57 49 42 33 24 17 8 3 359 352 347 342 336 333 330 330 325 324 324 321 321 320
103 104 102 103 102 103 103 101 98 97 95 94 92 90 87 82 74 69 64 62 56 49 41 33 27 19 11 6 1 356 350 344 341 338 331 330 329 326 328 325 323 323 323
104 104 106 106 106 104 102 99 97 97 97 92 86 85 81 76 70 63 58 53 48 43 34 25 17 8 1 358 355 352 346 342 337 333 327 325 324 324 324 327 324 325 324
106 106 105 105 103 101 100 100 97 95 94 89 86 82 78 72 65 58 51 46 40 34 26 15 8 2 355 351 346 342 337 336 332 327 324 325 326 331 329 322 321 319 317
105 104 104 103 101 101 99 93 94 94 88 85 82 77 74 70 62 53 45 40 34 25 17 9 1 354 348 345 341 342 338 336 336 334 332 329 329 325 318 319 317 318 320
102 101 100 100 101 100 98 98 92 86 85 81 76 75 70 66 57 49 41 34 26 20 11 2 355 352 351 350 342 343 341 340 335 337 335 331 330 330 331 326 329 327 324
104 104 106 105 103 99 95 91 89 88 85 81 73 64 60 55 48 38 31 25 19 12 6 358 356 354 348 345 341 340 336 334 335 335 333 333 334 334 334 332 332 327 324
105 106 105 101 97 92 90 86 83 82 80 74 68 64 55 46 37 29 22 16 14 3 360 356 351 348 345 340 336 336 335 328 337 333 334 337 336 335 336 336 334 326 320
109 107 103 103 102 96 92 90 84 73 64 66 60 50 45 38 27 21 17 12 3 3 354 349 349 344 340 336 332 335 336 335 332 334 335 337 337 339 337 334 330 328 325
111 108 105 97 95 97 92 78 67 63 55 48 43 38 32 24 17 15 10 4 0 353 350 347 341 337 335 335 339 338 334 332 334 334 334 336 336 334 332 333 331 331 329
115 108 102 100 95 85 73 67 58 50 41 34 29 22 17 10 5 1 358 354 349 346 346 341 338 338 339 337 336 335 335 336 334 332 330 331 332 333 332 333 331 333 328
110 105 104 101 93 84 78 69 50 37 29 23 16 9 2 357 355 351 347 346 346 343 340 338 340 342 343 343 340 337 337 334 329 326 326 328 331 330 330 332 331 327 314
109 99 89 75 61 48 35 25 18 16 13 6 358 353 353 348 342 340 341 341 340 337 338 338 342 343 344 344 341 338 338 334 330 327 328 329 329 330 330 330 328 316 307
117 108 86 68 51 34 18 5 352 347 344 344 347 344 336 329 328 329 333 338 338 336 336 338 339 342 343 342 341 339 336 336 334 333 332 331 330 330 330 328 324 314 310
141 119 112 102 73 13 354 350 347 338 334 343 346 342 335 332 332 333 336 339 340 339 336 336 335 337 339 339 341 339 337 337 338 336 333 332 332 331 329 325 320 314 311
181 189 192 200 294 337 346 350 348 347 346 343 343 345 345 342 336 339 337 335 337 339 337 335 332 333 335 336 337 337 337 338 338 336 336 335 335 332 329 324 317 315 311
207 215 225 246 287 322 339 343 344 348 348 343 341 343 345 343 340 338 334 335 337 338 338 334 332 332 333 335 336 337 337 338 337 336 335 335 335 332 326 322 319 314 310
224 231 241 256 280 301 316 326 335 340 342 341 338 340 343 343 337 333 334 336 337 337 336 334 331 330 333 335 335 334 335 336 336 336 335 334 334 330 329 326 318 313 309
235 242 250 258 272 287 302 316 324 330 334 336 337 339 340 339 336 334 335 336 336 336 333 330 329 330 334 334 333 333 334 335 335 335 334 334 334 331 328 322 316 312 312
238 244 251 258 267 278 291 302 312 322 328 332 334 333 336 338 337 336 334 334 335 334 332 328 326 329 333 332 332 333 333 333 333 334 335 333 332 328 322 317 317 315 314
242 244 249 256 265 276 288 297 306 314 320 326 329 330 334 336 337 335 332 333 334 334 331 328 327 329 332 333 333 332 333 335 335 334 336 332 321 324 323 321 319 317 316
243 247 251 257 263 272 282 290 299 307 315 322 326 328 331 334 336 334 332 333 334 334 335 332 331 331 333 334 335 334 335 336 334 340 336 326 327 328 327 323 321 320 319
244 246 250 254 261 268 279 286 293 299 308 315 321 325 330 334 334 334 333 334 334 335 336 335 332 333 335 337 338 338 337 336 340 339 332 332 335 333 330 327 327 324 322